| time (UTC) | temp F | wind direction | speed MPH | gust MPH | rain 1hr in | rain 24hr in | rain mn in | humidity % | barometer mb |
| 20260504033001 | 41 | 1 | 11.0 | 13.0 | 0.00 | 0.00 | 0.00 | 76 | 1016.0 |
| 20260504032002 | 41 | 345 | 7.0 | 11.0 | 0.00 | 0.00 | 0.00 | 77 | 1016.0 |
| 20260504031001 | 40 | 351 | 9.0 | 12.0 | 0.00 | 0.00 | 0.00 | 77 | 1016.0 |
| 20260504030002 | 40 | 345 | 12.0 | 14.0 | 0.00 | 0.00 | 0.00 | 78 | 1016.0 |
| 20260504025001 | 40 | 355 | 10.0 | 11.0 | 0.00 | 0.00 | 0.00 | 80 | 1016.0 |
| 20260504024002 | 39 | 346 | 7.0 | 9.0 | 0.00 | 0.00 | 0.00 | 80 | 1016.0 |
| 20260504023002 | 39 | 350 | 7.0 | 12.0 | 0.00 | 0.00 | 0.00 | 81 | 1016.0 |
| 20260504022001 | 38 | 337 | 4.0 | 7.0 | 0.00 | 0.00 | 0.00 | 83 | 1016.0 |
| 20260504021002 | 38 | 347 | 8.0 | 10.0 | 0.00 | 0.00 | 0.00 | 82 | 1016.0 |
| 20260504020001 | 39 | 351 | 11.0 | 11.0 | 0.00 | 0.00 | 0.00 | 82 | 1016.0 |
| 20260504015002 | 39 | 352 | 9.0 | 13.0 | 0.00 | 0.00 | 0.00 | 82 | 1016.0 |
| 20260504014001 | 39 | 355 | 6.0 | 7.0 | 0.00 | 0.00 | 0.00 | 81 | 1017.0 |
| 20260504013002 | 39 | 350 | 6.0 | 9.0 | 0.00 | 0.00 | 0.00 | 81 | 1017.0 |
| 20260504012001 | 39 | 349 | 6.0 | 8.0 | 0.00 | 0.00 | 0.00 | 80 | 1017.0 |
| 20260504011002 | 39 | 353 | 6.0 | 8.0 | 0.00 | 0.00 | 0.00 | 79 | 1017.0 |
| 20260504010002 | 39 | 0 | 6.0 | 8.0 | 0.00 | 0.00 | 0.00 | 79 | 1017.0 |
| 20260504005001 | 39 | 354 | 11.0 | 11.0 | 0.00 | 0.00 | 0.00 | 79 | 1017.0 |
| 20260504004002 | 40 | 352 | 8.0 | 9.0 | 0.00 | 0.00 | 0.00 | 78 | 1017.0 |
| 20260504003002 | 40 | 350 | 5.0 | 7.0 | 0.00 | 0.00 | 0.00 | 77 | 1018.0 |
| 20260504002002 | 41 | 350 | 10.0 | 11.0 | 0.00 | 0.00 | 0.00 | 74 | 1018.0 |
| 20260504001002 | 42 | 354 | 8.0 | 12.0 | 0.00 | 0.00 | 0.00 | 72 | 1018.0 |
| 20260504000001 | 42 | 339 | 6.0 | 11.0 | 0.00 | 0.00 | 0.00 | 70 | 1018.0 |
| 20260503235002 | 42 | 350 | 8.0 | 10.0 | 0.00 | 0.00 | 0.00 | 70 | 1018.0 |
| 20260503234002 | 42 | 345 | 7.0 | 10.0 | 0.00 | 0.00 | 0.00 | 71 | 1018.0 |
| 20260503233001 | 41 | 354 | 10.0 | 13.0 | 0.00 | 0.00 | 0.00 | 72 | 1018.0 |
| 20260503232002 | 41 | 356 | 6.0 | 6.0 | 0.00 | 0.00 | 0.00 | 74 | 1018.0 |
| 20260503231001 | 41 | 353 | 5.0 | 6.0 | 0.00 | 0.00 | 0.00 | 73 | 1018.0 |
| 20260503230002 | 41 | 3 | 4.0 | 6.0 | 0.00 | 0.00 | 0.00 | 73 | 1018.0 |
| 20260503225001 | 41 | 2 | 6.0 | 6.0 | 0.00 | 0.00 | 0.00 | 74 | 1018.0 |
| 20260503224002 | 41 | 0 | 5.0 | 6.0 | 0.00 | 0.00 | 0.00 | 74 | 1018.0 |
| 20260503223002 | 41 | 354 | 6.0 | 6.0 | 0.00 | 0.00 | 0.00 | 74 | 1018.0 |
| 20260503222001 | 41 | 359 | 4.0 | 5.0 | 0.00 | 0.00 | 0.00 | 73 | 1018.0 |
| 20260503221002 | 42 | 0 | 5.0 | 6.0 | 0.00 | 0.00 | 0.00 | 72 | 1018.0 |
| 20260503220002 | 42 | 0 | 7.0 | 8.0 | 0.00 | 0.00 | 0.00 | 71 | 1018.0 |
| 20260503215001 | 43 | 10 | 7.0 | 8.0 | 0.00 | 0.00 | 0.00 | 69 | 1018.0 |
| 20260503214002 | 43 | 356 | 7.0 | 8.0 | 0.00 | 0.00 | 0.00 | 68 | 1019.0 |
| 20260503213001 | 43 | 353 | 6.0 | 8.0 | 0.00 | 0.00 | 0.00 | 68 | 1018.0 |
| 20260503212002 | 44 | 358 | 6.0 | 7.0 | 0.00 | 0.00 | 0.00 | 68 | 1018.0 |
| 20260503211001 | 44 | 2 | 7.0 | 7.0 | 0.00 | 0.00 | 0.00 | 68 | 1018.0 |
| 20260503210001 | 44 | 355 | 6.0 | 7.0 | 0.00 | 0.00 | 0.00 | 68 | 1018.0 |
| 20260503205002 | 44 | 6 | 5.0 | 7.0 | 0.00 | 0.00 | 0.00 | 68 | 1018.0 |
| 20260503204001 | 44 | 359 | 4.0 | 7.0 | 0.00 | 0.00 | 0.00 | 68 | 1018.0 |
| 20260503203002 | 44 | 0 | 6.0 | 9.0 | 0.00 | 0.00 | 0.00 | 69 | 1019.0 |
| 20260503202001 | 44 | 351 | 6.0 | 7.0 | 0.00 | 0.00 | 0.00 | 70 | 1019.0 |
| 20260503201002 | 44 | 359 | 6.0 | 6.0 | 0.00 | 0.00 | 0.00 | 70 | 1019.0 |
| 20260503200001 | 44 | 354 | 6.0 | 6.0 | 0.00 | 0.00 | 0.00 | 71 | 1019.0 |
| 20260503195002 | 44 | 1 | 6.0 | 6.0 | 0.00 | 0.00 | 0.00 | 71 | 1019.0 |
| 20260503194001 | 44 | 353 | 5.0 | 7.0 | 0.00 | 0.00 | 0.00 | 70 | 1019.0 |
| 20260503193002 | 44 | 0 | 7.0 | 7.0 | 0.00 | 0.00 | 0.00 | 71 | 1019.0 |
| 20260503192002 | 44 | 2 | 4.0 | 6.0 | 0.00 | 0.00 | 0.00 | 70 | 1019.0 |
| 20260503191001 | 44 | 0 | 5.0 | 6.0 | 0.00 | 0.00 | 0.00 | 69 | 1020.0 |
| 20260503190002 | 45 | 4 | 4.0 | 6.0 | 0.00 | 0.00 | 0.00 | 69 | 1020.0 |
| 20260503185001 | 46 | 11 | 5.0 | 7.0 | 0.00 | 0.00 | 0.00 | 66 | 1020.0 |
| 20260503184002 | 46 | 0 | 4.0 | 6.0 | 0.00 | 0.00 | 0.00 | 66 | 1020.0 |
| 20260503183001 | 46 | 11 | 4.0 | 5.0 | 0.00 | 0.00 | 0.00 | 67 | 1020.0 |
| 20260503182002 | 46 | 17 | 5.0 | 5.0 | 0.00 | 0.00 | 0.00 | 68 | 1020.0 |
| 20260503181001 | 46 | 20 | 5.0 | 6.0 | 0.00 | 0.00 | 0.00 | 68 | 1020.0 |
| 20260503180002 | 47 | 20 | 3.0 | 5.0 | 0.00 | 0.00 | 0.00 | 67 | 1020.0 |
| 20260503175002 | 47 | 19 | 5.0 | 6.0 | 0.00 | 0.00 | 0.00 | 67 | 1020.0 |
| 20260503174001 | 48 | 17 | 3.0 | 4.0 | 0.00 | 0.00 | 0.00 | 66 | 1020.0 |
| 20260503173002 | 49 | 28 | 5.0 | 6.0 | 0.00 | 0.00 | 0.00 | 63 | 1020.0 |
| 20260503172001 | 50 | 30 | 5.0 | 5.0 | 0.00 | 0.00 | 0.00 | 60 | 1020.0 |
| 20260503171002 | 51 | 45 | 5.0 | 6.0 | 0.00 | 0.00 | 0.00 | 59 | 1020.0 |
| 20260503151002 | 55 | 86 | 4.0 | 5.0 | 0.00 | 0.00 | 0.00 | 56 | 1021.0 |
| 20260503131001 | 56 | 79 | 13.0 | 15.0 | 0.00 | 0.00 | 0.00 | 52 | 1021.0 |
| 20260503081001 | 55 | 76 | 8.0 | 10.0 | 0.00 | 0.00 | 0.00 | 64 | 1023.0 |
| 20260503072002 | 53 | 59 | 10.0 | 17.0 | 0.00 | 0.00 | 0.00 | 74 | 1023.0 |
| 20260503071001 | 52 | 60 | 11.0 | 16.0 | 0.00 | 0.00 | 0.00 | 76 | 1023.0 |
| 20260503055002 | 49 | 52 | 17.0 | 20.0 | 0.00 | 0.00 | 0.00 | 81 | 1022.0 |
| 20260503054001 | 49 | 56 | 10.0 | 15.0 | 0.00 | 0.00 | 0.00 | 81 | 1023.0 |
| 20260503053002 | 49 | 56 | 6.0 | 9.0 | 0.00 | 0.00 | 0.00 | 83 | 1022.0 |
| 20260503052001 | 50 | 66 | 16.0 | 20.0 | 0.00 | 0.00 | 0.00 | 81 | 1022.0 |
| 20260503051002 | 47 | 22 | 6.0 | 7.0 | 0.00 | 0.00 | 0.00 | 85 | 1022.0 |
| 20260503050001 | 46 | 22 | 6.0 | 9.0 | 0.00 | 0.00 | 0.00 | 85 | 1022.0 |
| 20260503045002 | 44 | 27 | 6.0 | 8.0 | 0.00 | 0.00 | 0.00 | 87 | 1022.0 |
| 20260503044002 | 43 | 24 | 8.0 | 9.0 | 0.00 | 0.00 | 0.00 | 87 | 1022.0 |
| 20260503043001 | 42 | 26 | 4.0 | 5.0 | 0.00 | 0.00 | 0.00 | 87 | 1022.0 |
| 20260503042002 | 41 | 16 | 6.0 | 9.0 | 0.00 | 0.00 | 0.00 | 86 | 1022.0 |
| 20260503041001 | 40 | 13 | 8.0 | 9.0 | 0.00 | 0.00 | 0.00 | 86 | 1022.0 |
| 20260503040002 | 41 | 12 | 7.0 | 9.0 | 0.00 | 0.00 | 0.00 | 85 | 1022.0 |
| 20260503035001 | 41 | 17 | 9.0 | 11.0 | 0.00 | 0.00 | 0.00 | 84 | 1022.0 |
| 20260503034002 | 41 | 16 | 7.0 | 9.0 | 0.00 | 0.00 | 0.00 | 85 | 1022.0 |